Wind_Speed
7 8 8 9 9 10 11 11 12 12 13 14 15 15 16 16 16 17 17 17 17 17 17 17 17 18 18 18 18 18 18 18 18 18 18 18 18 18 18 17 17 17 17
7 8 9 9 9 10 11 12 12 13 13 14 15 15 16 16 17 17 17 17 18 18 18 18 18 18 18 18 18 18 18 19 19 19 19 19 19 19 19 18 18 18 18
7 8 8 9 9 10 10 11 12 13 14 14 15 15 16 16 17 17 18 18 18 18 18 18 18 18 18 18 19 19 19 19 19 20 20 20 20 20 20 20 19 19 19
7 8 8 9 10 10 11 11 12 13 14 14 15 16 16 17 18 18 18 18 19 19 19 19 19 19 19 19 19 19 19 20 20 20 20 20 20 20 20 20 20 20 20
8 9 9 10 10 11 12 12 13 13 14 15 15 16 17 18 18 19 19 19 20 20 20 20 20 20 20 20 20 20 20 20 20 21 21 21 21 21 21 21 21 21 21
9 10 10 11 12 13 13 14 14 15 15 16 16 17 18 19 19 19 20 20 20 20 20 21 21 21 21 21 21 21 21 21 21 21 22 22 22 22 22 22 22 22 22
10 11 11 12 13 14 15 16 16 16 17 17 18 18 19 19 20 20 20 21 21 21 21 22 22 22 22 22 22 22 22 22 22 23 23 23 23 23 23 23 23 23 23
12 12 12 13 13 14 15 16 17 17 18 18 19 19 19 20 20 21 21 22 22 22 23 23 23 23 24 24 24 24 24 24 24 24 24 24 24 24 24 24 24 24 24
13 13 13 14 14 15 15 16 17 18 18 19 19 19 20 20 21 22 22 23 23 24 24 25 25 25 25 25 26 26 26 26 26 26 26 26 26 26 26 26 26 26 26
14 14 15 15 16 16 17 17 17 18 19 19 20 20 21 22 23 23 24 24 25 25 26 26 26 27 27 27 27 27 28 28 28 28 29 29 29 29 29 29 29 29 29
14 15 16 16 17 17 17 18 19 19 20 20 21 21 22 23 24 24 25 25 26 26 27 27 28 28 28 29 29 29 30 30 31 31 32 32 32 32 33 33 33 33 33
15 16 17 17 18 18 18 19 20 21 21 22 22 23 23 24 25 26 26 27 27 28 28 29 29 30 30 31 31 32 32 33 33 34 35 35 35 36 36 36 37 37 37
16 17 17 18 18 19 19 20 20 21 22 23 23 24 24 25 26 27 27 28 29 29 29 30 30 31 32 32 33 34 34 35 36 36 37 38 38 39 40 40 40 41 41
16 17 18 18 19 19 20 20 21 21 22 23 24 24 25 26 26 27 28 29 29 30 30 31 32 32 33 34 35 35 36 37 37 38 39 40 41 42 42 43 44 44 44
17 17 18 18 19 20 20 21 21 22 22 23 24 25 26 26 27 28 28 29 30 30 31 32 33 33 34 35 36 37 38 39 39 40 41 42 42 43 44 45 46 46 47
18 18 18 19 19 20 20 21 22 22 23 24 24 25 26 27 27 28 29 30 31 31 32 33 34 34 35 36 37 38 38 39 40 41 42 43 44 45 46 47 48 48 49
18 19 19 19 20 20 21 22 22 23 24 24 25 26 26 27 27 28 29 30 31 31 32 33 34 35 35 36 37 38 39 40 41 42 43 44 45 46 47 48 49 50 51
19 19 20 20 21 21 22 22 23 24 24 25 26 26 27 27 28 29 29 31 31 32 34 35 36 36 37 38 39 39 40 41 42 43 44 45 47 48 49 50 51 52 53
19 20 20 21 21 22 23 23 23 24 25 26 27 28 28 29 30 30 32 33 34 35 36 37 38 38 39 40 41 41 42 43 44 46 47 48 49 50 51 52 54 54 55
20 20 21 22 22 23 23 24 24 25 26 27 28 29 30 31 32 33 34 35 36 37 38 39 40 41 42 43 44 44 45 46 47 49 50 51 52 53 54 55 57 58 59
20 21 22 22 23 24 24 25 26 27 28 29 30 30 31 32 34 35 36 37 38 39 40 42 43 44 45 47 47 47 47 48 49 51 52 53 54 56 57 58 59 60 61
21 22 22 23 24 25 26 27 28 29 30 31 32 33 34 35 36 38 39 40 41 42 43 45 46 47 48 49 51 51 50 50 51 53 54 56 57 59 60 61 62 63 64
22 23 24 24 25 26 28 29 30 31 32 33 34 35 37 38 39 40 41 42 44 45 46 47 49 50 51 52 55 56 57 56 55 54 56 58 60 61 63 64 65 67 68
23 24 25 26 27 28 30 31 32 33 34 35 36 38 39 40 42 43 44 45 46 48 49 51 52 53 55 55 57 59 61 62 63 61 59 60 62 63 65 67 68 70 71
25 26 27 28 29 30 32 33 34 35 36 37 39 40 41 43 44 45 46 48 50 51 53 54 55 57 58 59 60 62 63 65 67 68 67 65 65 66 68 69 71 73 74
26 27 28 30 31 32 34 35 36 37 38 39 41 42 44 45 46 48 49 51 52 54 55 56 58 60 61 62 64 66 67 68 69 71 72 71 71 70 70 72 73 75 76
Wind_Direction
259 263 266 267 269 272 273 275 276 276 276 276 275 273 273 272 272 272 272 272 272 272 272 271 271 271 271 271 271 270 270 270 270 269 269 268 268 268 269 268 268 267 267
260 265 267 270 272 273 275 275 275 275 276 276 275 274 273 272 271 271 272 272 271 272 271 270 269 269 269 269 269 269 269 269 268 268 268 268 267 267 267 267 266 265 265
263 266 269 272 275 277 278 278 277 276 276 275 274 272 271 271 270 270 270 270 270 270 270 270 269 268 268 267 267 268 268 268 267 266 266 266 267 266 265 264 264 264 264
270 271 272 275 277 278 279 280 280 279 277 276 274 272 271 270 270 270 269 269 269 269 269 268 268 268 267 267 267 267 266 266 265 265 264 264 264 265 264 264 264 263 262
275 276 276 277 278 278 279 279 279 279 278 277 275 273 272 271 271 271 270 269 269 268 267 267 267 267 267 267 267 266 265 264 264 263 263 263 262 262 263 263 263 263 262
281 280 279 278 278 278 279 278 278 278 278 277 277 275 273 272 272 271 270 269 268 267 267 267 267 267 267 267 266 266 265 265 263 262 262 262 262 261 261 261 262 262 262
285 284 283 281 279 279 278 277 277 277 277 277 277 276 274 273 272 271 271 270 269 268 267 267 267 267 267 266 266 265 265 265 264 263 262 261 262 261 261 261 261 261 261
291 290 289 286 282 280 279 279 278 277 276 276 276 276 274 273 272 271 270 270 269 269 268 268 267 266 265 265 265 265 264 263 263 262 262 261 261 261 261 261 261 261 261
293 293 292 290 287 284 282 281 280 279 278 277 276 275 273 272 272 271 270 269 270 270 269 269 268 267 266 265 265 265 264 263 263 263 262 262 262 262 262 262 262 262 262
293 291 290 289 287 285 284 283 282 280 279 278 277 276 274 273 273 272 271 271 271 271 270 270 269 269 268 268 267 266 265 265 264 264 263 263 263 263 263 263 263 263 263
294 292 290 289 288 287 286 285 283 281 280 278 276 275 275 274 273 272 272 271 271 270 270 269 269 268 268 268 267 267 266 266 265 265 264 264 264 264 264 264 264 263 263
296 294 292 291 289 288 287 286 284 282 280 279 278 277 276 275 274 274 274 273 273 272 271 271 270 270 269 269 268 268 267 267 266 265 265 264 264 264 264 264 264 264 264
298 296 294 293 291 289 288 288 287 285 283 281 280 279 278 277 277 276 276 275 275 274 274 273 273 272 271 271 270 270 269 268 267 267 266 266 266 265 265 265 264 264 264
299 297 296 294 293 292 291 290 289 288 286 285 283 281 280 279 278 277 277 277 276 275 274 274 274 273 272 271 271 270 270 269 269 268 268 267 267 266 266 266 266 265 265
299 297 296 294 292 292 291 291 290 290 288 287 285 284 282 280 279 278 278 277 277 276 275 274 274 273 273 273 272 272 272 271 271 270 269 269 268 267 267 266 266 266 266
298 297 296 295 294 293 293 292 291 290 289 287 286 285 283 282 281 280 279 279 278 278 277 277 276 276 275 274 274 273 273 272 272 272 271 270 270 269 268 268 267 266 266
297 297 296 295 295 295 294 293 293 291 290 289 288 286 285 283 282 281 281 281 280 280 279 279 278 277 277 276 275 275 274 274 273 273 272 272 271 271 270 270 269 268 267
297 297 297 296 296 296 295 294 293 293 292 290 289 287 286 285 284 283 282 281 280 280 280 279 279 278 277 277 276 276 276 275 275 274 273 273 272 272 271 271 270 270 269
298 298 297 297 297 296 296 295 294 293 292 291 290 289 288 286 285 283 283 282 282 281 281 280 280 279 279 278 278 278 277 276 276 275 274 274 273 272 272 272 271 270 269
297 298 298 298 298 297 296 295 295 294 293 292 291 290 289 288 286 286 285 285 284 283 283 282 281 281 280 279 279 278 278 277 277 277 276 275 275 274 273 272 272 271 270
297 298 299 298 298 298 297 296 295 295 295 294 293 292 291 290 289 288 288 287 286 286 285 284 284 284 283 282 281 280 279 279 279 278 278 277 276 275 274 274 273 272 271
296 297 298 298 298 298 298 297 297 296 295 295 294 293 292 291 291 290 289 289 288 288 287 287 286 286 285 285 284 282 280 279 280 280 279 279 278 277 276 275 275 273 272
295 297 297 298 298 298 298 298 297 296 295 294 294 293 293 293 293 292 292 291 291 290 289 289 288 287 287 287 286 286 284 281 279 278 278 278 278 278 277 276 276 275 274
295 296 297 298 298 298 298 297 297 296 295 295 294 294 294 294 293 293 293 292 291 291 291 290 290 289 289 288 288 288 287 286 284 281 279 278 278 278 277 277 276 275 274
294 296 297 298 298 298 297 297 297 296 296 295 295 294 294 294 293 293 293 293 293 292 292 292 291 291 291 290 290 289 289 288 288 286 284 281 280 279 278 277 277 276 275
294 295 296 297 298 298 297 297 297 296 296 296 295 295 295 294 294 293 294 294 294 293 293 293 293 293 292 292 291 291 290 289 288 287 286 285 283 281 280 279 279 277 276
Height
5879 5879 5879 5879 5879 5879 5879 5879 5879 5879 5879 5879 5879 5879 5879 5879 5879 5879 5879 5879 5879 5879 5878 5878 5878 5878 5878 5877 5877 5877 5877 5877 5877 5877 5877 5877 5877 5876 5876 5876 5877 5877 5877
5877 5877 5877 5877 5877 5877 5877 5877 5877 5877 5877 5877 5877 5877 5877 5877 5877 5876 5876 5876 5876 5876 5875 5875 5875 5875 5874 5874 5874 5874 5874 5874 5873 5873 5873 5873 5873 5873 5873 5873 5873 5873 5873
5876 5875 5875 5875 5875 5875 5875 5875 5875 5875 5875 5874 5874 5874 5874 5874 5874 5874 5873 5873 5873 5872 5872 5871 5871 5871 5871 5871 5870 5870 5870 5869 5869 5869 5869 5869 5869 5869 5869 5869 5869 5869 5869
5874 5874 5874 5873 5873 5873 5873 5872 5872 5872 5872 5872 5872 5871 5871 5871 5871 5870 5870 5870 5869 5869 5868 5868 5867 5867 5867 5867 5866 5866 5866 5865 5865 5865 5865 5865 5865 5865 5865 5864 5864 5864 5865
5872 5872 5872 5871 5871 5871 5870 5870 5870 5870 5869 5869 5869 5868 5868 5868 5867 5867 5867 5866 5866 5865 5865 5864 5864 5863 5863 5863 5862 5862 5862 5861 5861 5860 5860 5860 5860 5860 5860 5860 5860 5860 5860
5870 5870 5869 5869 5869 5868 5868 5868 5867 5867 5866 5866 5865 5865 5864 5864 5864 5863 5863 5862 5862 5861 5861 5860 5860 5859 5859 5858 5858 5857 5857 5857 5856 5856 5856 5856 5855 5855 5855 5855 5855 5855 5855
5868 5867 5867 5867 5866 5866 5865 5865 5864 5864 5864 5863 5862 5862 5861 5860 5860 5859 5859 5858 5858 5857 5856 5856 5855 5855 5854 5854 5853 5853 5852 5852 5852 5851 5851 5851 5851 5850 5850 5850 5850 5850 5850
5866 5865 5864 5864 5863 5863 5862 5862 5861 5861 5860 5859 5859 5858 5857 5856 5856 5855 5854 5854 5853 5853 5852 5851 5851 5850 5850 5849 5849 5848 5848 5847 5847 5846 5846 5846 5845 5845 5845 5845 5844 5844 5844
5863 5862 5862 5861 5861 5860 5859 5858 5858 5857 5856 5856 5855 5854 5853 5853 5852 5851 5850 5849 5849 5848 5847 5846 5846 5845 5845 5844 5844 5843 5843 5842 5841 5841 5840 5840 5840 5840 5839 5839 5839 5839 5839
5861 5860 5859 5858 5858 5857 5856 5855 5854 5853 5853 5852 5851 5850 5849 5848 5847 5846 5846 5845 5844 5843 5842 5841 5841 5840 5839 5839 5838 5838 5837 5836 5836 5835 5835 5834 5834 5834 5833 5833 5833 5833 5832
5858 5857 5856 5855 5854 5853 5853 5852 5851 5850 5849 5848 5847 5846 5845 5844 5843 5842 5841 5840 5839 5838 5837 5836 5835 5834 5834 5833 5832 5832 5831 5830 5830 5829 5829 5828 5828 5827 5827 5827 5826 5826 5826
5856 5854 5853 5852 5851 5850 5849 5848 5847 5846 5844 5843 5843 5842 5840 5839 5838 5837 5836 5835 5834 5833 5832 5831 5830 5829 5828 5827 5826 5825 5825 5824 5823 5822 5822 5821 5821 5820 5820 5819 5819 5819 5819
5852 5851 5849 5848 5847 5846 5845 5844 5843 5841 5840 5839 5838 5837 5836 5834 5833 5832 5831 5830 5828 5827 5826 5825 5824 5823 5822 5821 5820 5819 5818 5817 5816 5815 5814 5813 5813 5812 5812 5811 5811 5810 5810
5849 5848 5846 5845 5843 5842 5841 5840 5838 5837 5836 5834 5833 5832 5830 5829 5828 5826 5825 5824 5822 5821 5820 5819 5817 5816 5815 5814 5812 5811 5810 5809 5808 5807 5806 5805 5804 5803 5803 5802 5802 5801 5801
5846 5844 5843 5841 5840 5838 5837 5835 5834 5832 5831 5830 5828 5827 5825 5824 5822 5820 5819 5817 5816 5814 5813 5812 5810 5809 5808 5806 5805 5804 5802 5801 5800 5799 5797 5796 5795 5794 5793 5792 5791 5791 5790
5842 5841 5839 5838 5836 5834 5833 5831 5829 5828 5826 5824 5823 5821 5820 5818 5816 5814 5813 5811 5809 5808 5806 5805 5803 5802 5800 5799 5797 5795 5794 5793 5791 5790 5788 5787 5785 5784 5783 5782 5781 5780 5779
5838 5836 5835 5834 5832 5830 5829 5827 5825 5823 5821 5819 5817 5816 5814 5812 5810 5809 5807 5805 5803 5801 5799 5797 5795 5794 5792 5790 5789 5787 5785 5784 5782 5780 5779 5777 5775 5773 5772 5770 5769 5768 5768
5834 5832 5831 5829 5827 5826 5824 5822 5820 5818 5816 5814 5812 5810 5808 5806 5804 5802 5800 5798 5796 5794 5792 5790 5788 5786 5784 5782 5780 5778 5776 5774 5772 5770 5768 5766 5764 5763 5761 5759 5758 5756 5755
5829 5828 5826 5824 5823 5821 5819 5817 5815 5812 5810 5808 5806 5804 5802 5800 5797 5795 5793 5790 5788 5786 5784 5781 5779 5777 5775 5773 5771 5769 5767 5764 5762 5760 5757 5755 5753 5751 5749 5747 5745 5743 5742
5825 5823 5821 5819 5817 5815 5813 5811 5809 5807 5805 5802 5800 5797 5795 5793 5790 5788 5785 5783 5780 5778 5775 5772 5770 5767 5765 5762 5760 5758 5756 5754 5751 5748 5745 5743 5740 5738 5736 5734 5731 5729 5728
5820 5818 5816 5814 5812 5810 5808 5806 5803 5801 5798 5796 5793 5790 5788 5785 5782 5780 5777 5774 5771 5768 5765 5762 5759 5757 5754 5750 5748 5747 5745 5742 5739 5736 5733 5730 5727 5724 5721 5719 5717 5715 5713
5815 5813 5811 5809 5807 5804 5802 5799 5797 5794 5792 5789 5786 5783 5780 5777 5774 5771 5768 5765 5762 5759 5755 5752 5748 5745 5742 5738 5734 5732 5732 5732 5727 5723 5719 5716 5712 5709 5706 5703 5701 5699 5697
5810 5808 5806 5803 5801 5798 5796 5793 5790 5787 5784 5781 5778 5775 5772 5768 5765 5762 5758 5755 5751 5748 5744 5740 5736 5733 5730 5726 5720 5716 5714 5714 5713 5712 5707 5702 5698 5694 5690 5686 5683 5681 5678
5804 5802 5800 5797 5795 5792 5789 5786 5783 5780 5777 5774 5770 5767 5763 5759 5755 5752 5748 5744 5740 5736 5732 5728 5724 5720 5716 5712 5707 5702 5697 5693 5690 5691 5692 5688 5683 5678 5674 5669 5665 5662 5659
5798 5796 5793 5791 5788 5785 5782 5779 5775 5772 5769 5765 5762 5758 5754 5750 5745 5741 5737 5733 5729 5724 5720 5715 5711 5706 5701 5696 5692 5687 5682 5677 5671 5667 5667 5668 5664 5660 5655 5650 5646 5641 5637
5792 5789 5787 5784 5781 5778 5774 5771 5767 5764 5760 5756 5752 5748 5744 5740 5735 5730 5726 5721 5716 5711 5707 5701 5696 5691 5685 5680 5675 5669 5664 5659 5654 5648 5645 5643 5641 5639 5634 5630 5624 5619 5614